Погода в Сетубале

Португалия     38°31′31″N   8°54′10″W
темп.,
°C
ветер,
м/с
пор.,
м/с
влажн.,
%
обл.,
%
осадки,
мм/ч
давл.,
гПа
погр.,
м
13 мая, чт
чт1301:00+12сз22880 0.0 102462
04:00+12зсз22920 0.0 102250
07:00+12зсз22930 0.0 102258
10:00+18зсз456153 0.0 1021898
13:00+20з675634 0.0 10211086
16:00+19зсз797499 0.1 1020800
19:00+19сз6862100 0.1 1019908
22:00+14сз49850 0.0 1021481
14 мая, пт
пт1401:00+13сз39935 0.0 1020305
04:00+12сз37930 0.0 1019234
07:00+12ссз389179 0.0 1020294
10:00+18ссз56595 0.0 1021869
13:00+22ссз45445 0.0 10201055
16:00+23сз5641100 0.0 10191051
19:00+19ссз5757100 0.0 1019563
22:00+15ссз3481100 0.0 1020127
15 мая, сб
сб1501:00+14сз2292100 0.0 101943
04:00+13сз119510 0.0 101833
07:00+13сз119329 0.0 101935
10:00+21зсз13575 0.0 1019563
13:00+25зсз34455 0.0 10181033
16:00+25зсз664719 0.0 1017891
19:00+22сз675899 0.0 1017571
22:00+16ссз3592100 0.0 1019117
16 мая, вс
вс1601:00+15ссз2394100 0.0 101958
04:00+15зсз229494 0.0 101833
07:00+16сз2394100 0.0 1018180
10:00+20ссз566857 0.0 1019771
13:00+24ссз6854100 0.0 10181081
16:00+24сз6754100 0.0 10171045
19:00+20ссз6869100 0.0 1018766
22:00+16с7128235 0.0 1020562
17 мая, пн
пн1701:00+15с6127393 0.0 1021553
04:00+14с71371100 0.0 1020631
07:00+14с61365100 0.0 1022629
10:00+18с811467 0.0 1023809
13:00+22с793041 0.0 1022947
16:00+22с89315 0.0 1022985
19:00+19с81241100 0.0 1022681
22:00+14с613596 0.0 1024468